User: anonymous
Location: Bush Observatory
(40.2653°N, 94.3194°W)
Time: 14:14:40
(UTC-05:00)
Language:

Cosmos 1933 Rocket - Orbit

View from above orbital plane
View from above orbital plane
View from above satellite
View from above satellite

Ground track
Ground track

The orbit data is extracted from the following two-line orbital elements,

1 18959U 88020B   14206.47504748  .00000145  00000-0  14975-4 0  3008
2 18959 082.5387 178.8952 0017411 030.0699 089.3293 14.82824237423800
Epoch (UTC): 25 July 2014 11:24:04
Eccentricity: 0.0017411
inclination: 82.5387°
perigee height: 608 km
apogee height: 632 km
right ascension of ascending node: 178.8952°
argument of perigee: 30.0699°
revolutions per day: 14.82824237
mean anomaly at epoch: 89.3293°
orbit number at epoch: 42380

The dashed part of the orbit path shows where the satellite is in the earth's shadow,  

DLR